QPF
0.00 0.00 0.00 0.00 0.00 0.00 0.00 0.00 0.01 0.00 0.00 0.00 0.00 0.01 0.02 0.00 0.00 0.00 0.00 0.00 0.00 0.00 0.00 0.00 0.00 0.00 0.00 0.00 0.01 0.01 0.01 0.02 0.03 0.04 0.04 0.04 0.06 0.06 0.05 0.04 0.05 0.06 0.04 0.04
0.00 0.00 0.00 0.00 0.00 0.00 0.00 0.00 0.00 0.00 0.00 0.00 0.00 0.00 0.00 0.00 0.00 0.00 0.00 0.00 0.00 0.00 0.00 0.00 0.00 0.00 0.00 0.00 0.00 0.01 0.01 0.03 0.03 0.03 0.03 0.03 0.03 0.03 0.03 0.03 0.03 0.04 0.02 0.02
0.00 0.00 0.00 0.00 0.00 0.00 0.00 0.00 0.00 0.00 0.00 0.00 0.00 0.00 0.01 0.02 0.01 0.00 0.00 0.00 0.00 0.00 0.00 0.00 0.00 0.00 0.00 0.00 0.00 0.00 0.01 0.02 0.03 0.02 0.02 0.02 0.03 0.03 0.04 0.04 0.04 0.04 0.03 0.02
0.00 0.00 0.00 0.00 0.00 0.00 0.00 0.00 0.00 0.00 0.00 0.00 0.00 0.01 0.02 0.03 0.02 0.00 0.00 0.00 0.00 0.00 0.00 0.00 0.00 0.00 0.00 0.00 0.00 0.02 0.03 0.04 0.03 0.02 0.01 0.02 0.03 0.04 0.05 0.06 0.05 0.06 0.03 0.01
0.00 0.00 0.00 0.00 0.00 0.00 0.00 0.00 0.00 0.00 0.00 0.00 0.00 0.00 0.01 0.01 0.02 0.01 0.00 0.00 0.00 0.00 0.00 0.00 0.00 0.00 0.00 0.00 0.00 0.01 0.02 0.04 0.03 0.02 0.03 0.04 0.04 0.03 0.03 0.03 0.06 0.07 0.04 0.02
0.00 0.00 0.00 0.00 0.00 0.00 0.00 0.00 0.00 0.00 0.00 0.00 0.00 0.00 0.01 0.03 0.02 0.01 0.00 0.00 0.00 0.00 0.00 0.00 0.00 0.00 0.00 0.00 0.00 0.00 0.01 0.02 0.02 0.02 0.03 0.04 0.04 0.05 0.06 0.05 0.06 0.05 0.04 0.03
0.00 0.00 0.00 0.00 0.00 0.00 0.00 0.00 0.00 0.00 0.00 0.00 0.00 0.00 0.01 0.03 0.02 0.00 0.00 0.00 0.00 0.00 0.00 0.00 0.00 0.00 0.00 0.00 0.00 0.00 0.01 0.01 0.02 0.02 0.02 0.02 0.02 0.03 0.04 0.04 0.04 0.04 0.04 0.03
0.00 0.00 0.00 0.00 0.00 0.00 0.00 0.00 0.00 0.00 0.00 0.00 0.00 0.00 0.00 0.00 0.00 0.00 0.00 0.00 0.00 0.00 0.00 0.00 0.00 0.00 0.00 0.00 0.00 0.00 0.00 0.01 0.02 0.01 0.02 0.03 0.03 0.04 0.04 0.07 0.06 0.05 0.03 0.02
0.01 0.00 0.00 0.00 0.00 0.00 0.00 0.00 0.00 0.00 0.00 0.00 0.00 0.01 0.01 0.00 0.00 0.00 0.00 0.00 0.00 0.00 0.01 0.01 0.01 0.01 0.01 0.00 0.00 0.00 0.00 0.02 0.01 0.01 0.01 0.02 0.02 0.03 0.05 0.08 0.07 0.05 0.04 0.03
0.00 0.00 0.00 0.00 0.00 0.00 0.00 0.00 0.00 0.00 0.00 0.00 0.01 0.01 0.04 0.02 0.01 0.00 0.00 0.00 0.00 0.01 0.02 0.02 0.01 0.00 0.00 0.00 0.00 0.00 0.00 0.01 0.01 0.01 0.01 0.01 0.02 0.03 0.03 0.04 0.05 0.05 0.06 0.05
0.00 0.00 0.00 0.00 0.00 0.00 0.00 0.00 0.00 0.00 0.00 0.00 0.00 0.02 0.04 0.03 0.01 0.00 0.00 0.00 0.00 0.01 0.02 0.02 0.01 0.00 0.00 0.00 0.00 0.00 0.00 0.01 0.01 0.01 0.02 0.03 0.03 0.03 0.03 0.04 0.04 0.04 0.06 0.06
0.00 0.01 0.00 0.00 0.00 0.00 0.00 0.00 0.00 0.00 0.00 0.00 0.00 0.01 0.03 0.03 0.01 0.00 0.00 0.00 0.01 0.01 0.02 0.03 0.01 0.00 0.01 0.00 0.00 0.00 0.00 0.01 0.01 0.01 0.04 0.11 0.08 0.07 0.09 0.08 0.06 0.07 0.07 0.06
0.00 0.01 0.01 0.00 0.00 0.00 0.00 0.00 0.00 0.00 0.00 0.00 0.00 0.02 0.02 0.02 0.01 0.00 0.00 0.00 0.00 0.00 0.00 0.01 0.00 0.01 0.01 0.01 0.00 0.00 0.01 0.02 0.02 0.02 0.04 0.06 0.09 0.09 0.12 0.12 0.08 0.06 0.06 0.06
0.00 0.00 0.01 0.01 0.00 0.00 0.00 0.00 0.00 0.00 0.00 0.00 0.01 0.04 0.04 0.02 0.00 0.00 0.00 0.00 0.00 0.01 0.02 0.02 0.02 0.03 0.03 0.02 0.01 0.01 0.02 0.03 0.02 0.02 0.03 0.04 0.05 0.05 0.06 0.06 0.07 0.07 0.08 0.10
0.00 0.00 0.00 0.00 0.00 0.00 0.00 0.00 0.00 0.00 0.00 0.00 0.01 0.02 0.05 0.02 0.00 0.00 0.00 0.00 0.02 0.02 0.03 0.02 0.03 0.03 0.02 0.01 0.01 0.01 0.02 0.02 0.01 0.02 0.03 0.03 0.04 0.04 0.04 0.05 0.08 0.11 0.14 0.17
0.00 0.00 0.00 0.00 0.00 0.00 0.00 0.00 0.00 0.00 0.00 0.00 0.00 0.01 0.03 0.01 0.00 0.00 0.00 0.01 0.03 0.04 0.04 0.02 0.02 0.02 0.01 0.01 0.01 0.01 0.01 0.01 0.01 0.01 0.01 0.02 0.05 0.11 0.08 0.06 0.08 0.13 0.15 0.11
0.00 0.00 0.00 0.00 0.00 0.00 0.00 0.00 0.00 0.00 0.00 0.00 0.00 0.01 0.02 0.03 0.02 0.00 0.00 0.01 0.02 0.01 0.01 0.02 0.02 0.02 0.02 0.01 0.01 0.01 0.01 0.01 0.01 0.01 0.01 0.02 0.03 0.04 0.04 0.04 0.05 0.06 0.09 0.09
0.00 0.00 0.00 0.00 0.00 0.01 0.00 0.00 0.00 0.00 0.00 0.00 0.00 0.04 0.04 0.03 0.03 0.00 0.00 0.00 0.01 0.01 0.01 0.02 0.03 0.03 0.02 0.01 0.01 0.01 0.01 0.02 0.02 0.02 0.02 0.03 0.03 0.03 0.03 0.03 0.05 0.06 0.08 0.09
0.00 0.00 0.00 0.00 0.01 0.01 0.01 0.00 0.00 0.00 0.00 0.00 0.00 0.01 0.02 0.01 0.02 0.01 0.01 0.01 0.01 0.01 0.01 0.02 0.03 0.03 0.02 0.02 0.01 0.02 0.03 0.03 0.04 0.03 0.04 0.05 0.04 0.03 0.03 0.04 0.05 0.07 0.07 0.07
0.00 0.00 0.00 0.01 0.01 0.01 0.01 0.00 0.00 0.00 0.01 0.00 0.00 0.01 0.04 0.02 0.03 0.04 0.02 0.01 0.01 0.01 0.02 0.02 0.02 0.02 0.02 0.02 0.02 0.03 0.04 0.05 0.04 0.04 0.05 0.05 0.06 0.07 0.07 0.08 0.08 0.08 0.07 0.06
0.00 0.00 0.01 0.01 0.01 0.01 0.00 0.00 0.00 0.02 0.03 0.01 0.00 0.01 0.02 0.03 0.04 0.04 0.02 0.01 0.02 0.01 0.01 0.02 0.02 0.02 0.02 0.01 0.02 0.02 0.03 0.04 0.05 0.07 0.08 0.07 0.08 0.11 0.12 0.12 0.11 0.10 0.10 0.09
0.00 0.00 0.01 0.01 0.01 0.02 0.01 0.01 0.01 0.02 0.02 0.01 0.01 0.02 0.03 0.04 0.04 0.04 0.01 0.01 0.01 0.01 0.00 0.00 0.01 0.01 0.01 0.01 0.01 0.01 0.02 0.02 0.02 0.04 0.06 0.08 0.10 0.10 0.15 0.19 0.15 0.12 0.11 0.11
0.01 0.01 0.01 0.01 0.03 0.02 0.01 0.01 0.00 0.00 0.00 0.00 0.00 0.02 0.04 0.05 0.04 0.02 0.01 0.01 0.01 0.00 0.00 0.00 0.01 0.01 0.01 0.01 0.01 0.01 0.01 0.01 0.02 0.02 0.04 0.05 0.06 0.07 0.09 0.16 0.19 0.13 0.09 0.09
0.01 0.01 0.01 0.01 0.02 0.02 0.02 0.01 0.00 0.00 0.00 0.00 0.00 0.02 0.03 0.03 0.03 0.02 0.02 0.01 0.01 0.01 0.01 0.00 0.00 0.00 0.01 0.01 0.01 0.02 0.01 0.01 0.02 0.02 0.02 0.03 0.04 0.04 0.06 0.08 0.10 0.10 0.06 0.06
0.03 0.01 0.01 0.02 0.02 0.02 0.01 0.00 0.00 0.00 0.00 0.00 0.01 0.03 0.03 0.03 0.02 0.02 0.02 0.03 0.02 0.01 0.02 0.01 0.01 0.01 0.01 0.01 0.01 0.02 0.02 0.02 0.02 0.02 0.02 0.03 0.03 0.03 0.04 0.04 0.05 0.05 0.04 0.04
0.04 0.03 0.03 0.05 0.05 0.02 0.01 0.00 0.00 0.00 0.00 0.01 0.02 0.04 0.03 0.02 0.02 0.02 0.02 0.03 0.04 0.03 0.02 0.02 0.02 0.02 0.01 0.01 0.01 0.01 0.02 0.02 0.03 0.04 0.03 0.03 0.03 0.03 0.02 0.02 0.02 0.02 0.02 0.03
MSLP
1007.21 1007.70 1008.13 1008.47 1008.74 1008.94 1009.09 1009.18 1009.21 1009.18 1009.08 1008.92 1008.71 1008.49 1008.28 1008.13 1008.09 1008.18 1008.41 1008.78 1009.25 1009.79 1010.37 1010.94 1011.48 1011.97 1012.40 1012.79 1013.12 1013.42 1013.69 1013.93 1014.15 1014.36 1014.56 1014.75 1014.94 1015.13 1015.33 1015.52 1015.72 1015.92 1016.11 1016.29
1008.02 1008.36 1008.63 1008.83 1008.99 1009.14 1009.29 1009.43 1009.56 1009.63 1009.63 1009.51 1009.30 1009.00 1008.66 1008.34 1008.11 1008.01 1008.08 1008.33 1008.75 1009.28 1009.89 1010.51 1011.10 1011.64 1012.10 1012.49 1012.83 1013.12 1013.40 1013.68 1013.96 1014.24 1014.51 1014.77 1015.00 1015.21 1015.40 1015.56 1015.70 1015.85 1016.00 1016.16
1008.73 1008.91 1009.02 1009.08 1009.14 1009.25 1009.42 1009.65 1009.88 1010.07 1010.16 1010.10 1009.88 1009.51 1009.03 1008.53 1008.10 1007.80 1007.69 1007.81 1008.14 1008.64 1009.25 1009.90 1010.53 1011.10 1011.59 1012.00 1012.35 1012.67 1012.97 1013.30 1013.64 1013.99 1014.34 1014.67 1014.96 1015.20 1015.38 1015.52 1015.63 1015.73 1015.85 1015.99
1009.29 1009.33 1009.29 1009.24 1009.24 1009.35 1009.56 1009.88 1010.23 1010.55 1010.73 1010.73 1010.49 1010.04 1009.43 1008.75 1008.10 1007.58 1007.28 1007.24 1007.45 1007.89 1008.47 1009.14 1009.80 1010.40 1010.93 1011.37 1011.75 1012.09 1012.44 1012.81 1013.22 1013.65 1014.07 1014.47 1014.81 1015.07 1015.26 1015.38 1015.46 1015.53 1015.62 1015.75
1009.65 1009.58 1009.46 1009.35 1009.33 1009.46 1009.75 1010.18 1010.66 1011.10 1011.38 1011.42 1011.17 1010.64 1009.89 1009.01 1008.15 1007.41 1006.90 1006.68 1006.75 1007.10 1007.64 1008.29 1008.96 1009.60 1010.16 1010.65 1011.07 1011.46 1011.86 1012.29 1012.75 1013.24 1013.73 1014.17 1014.55 1014.83 1015.02 1015.13 1015.19 1015.23 1015.29 1015.41
1009.80 1009.68 1009.51 1009.39 1009.40 1009.60 1010.00 1010.55 1011.16 1011.71 1012.08 1012.16 1011.90 1011.29 1010.41 1009.36 1008.28 1007.33 1006.61 1006.20 1006.12 1006.35 1006.82 1007.44 1008.12 1008.78 1009.39 1009.93 1010.40 1010.85 1011.29 1011.77 1012.28 1012.81 1013.33 1013.80 1014.19 1014.48 1014.66 1014.75 1014.79 1014.81 1014.85 1014.94
1009.76 1009.61 1009.45 1009.37 1009.45 1009.75 1010.26 1010.94 1011.67 1012.33 1012.77 1012.89 1012.62 1011.96 1010.97 1009.77 1008.52 1007.37 1006.45 1005.86 1005.62 1005.73 1006.12 1006.70 1007.36 1008.05 1008.69 1009.27 1009.80 1010.29 1010.79 1011.30 1011.83 1012.37 1012.90 1013.37 1013.76 1014.03 1014.20 1014.27 1014.28 1014.28 1014.30 1014.37
1009.55 1009.42 1009.30 1009.29 1009.46 1009.86 1010.48 1011.27 1012.10 1012.84 1013.35 1013.50 1013.23 1012.54 1011.48 1010.19 1008.81 1007.52 1006.45 1005.70 1005.33 1005.31 1005.61 1006.13 1006.77 1007.45 1008.12 1008.74 1009.31 1009.84 1010.36 1010.88 1011.42 1011.95 1012.46 1012.91 1013.27 1013.52 1013.66 1013.71 1013.71 1013.69 1013.69 1013.75
1009.25 1009.15 1009.09 1009.16 1009.42 1009.91 1010.61 1011.47 1012.36 1013.15 1013.69 1013.86 1013.60 1012.91 1011.85 1010.52 1009.09 1007.73 1006.57 1005.72 1005.24 1005.12 1005.33 1005.78 1006.38 1007.05 1007.72 1008.35 1008.94 1009.49 1010.02 1010.54 1011.05 1011.55 1012.02 1012.43 1012.75 1012.97 1013.09 1013.14 1013.13 1013.10 1013.10 1013.16
1008.92 1008.87 1008.88 1009.02 1009.35 1009.89 1010.63 1011.49 1012.38 1013.16 1013.69 1013.87 1013.64 1012.98 1011.96 1010.67 1009.28 1007.93 1006.76 1005.87 1005.33 1005.14 1005.27 1005.66 1006.20 1006.83 1007.47 1008.10 1008.69 1009.23 1009.75 1010.24 1010.72 1011.18 1011.60 1011.96 1012.24 1012.44 1012.55 1012.59 1012.59 1012.59 1012.60 1012.66
1008.68 1008.68 1008.75 1008.95 1009.30 1009.83 1010.53 1011.33 1012.14 1012.84 1013.32 1013.47 1013.26 1012.66 1011.73 1010.56 1009.29 1008.04 1006.94 1006.09 1005.55 1005.33 1005.41 1005.73 1006.20 1006.77 1007.38 1007.96 1008.52 1009.04 1009.53 1009.99 1010.42 1010.83 1011.19 1011.51 1011.77 1011.95 1012.07 1012.13 1012.17 1012.19 1012.24 1012.32
1008.61 1008.68 1008.80 1009.01 1009.35 1009.82 1010.40 1011.05 1011.70 1012.25 1012.61 1012.70 1012.49 1011.97 1011.17 1010.17 1009.08 1008.01 1007.06 1006.33 1005.85 1005.64 1005.69 1005.95 1006.36 1006.85 1007.39 1007.92 1008.43 1008.90 1009.34 1009.75 1010.14 1010.50 1010.82 1011.11 1011.35 1011.54 1011.68 1011.78 1011.86 1011.94 1012.02 1012.13
1008.77 1008.90 1009.07 1009.28 1009.56 1009.90 1010.31 1010.74 1011.15 1011.48 1011.67 1011.66 1011.43 1010.98 1010.33 1009.53 1008.68 1007.84 1007.11 1006.54 1006.17 1006.01 1006.06 1006.28 1006.62 1007.04 1007.49 1007.95 1008.39 1008.81 1009.20 1009.56 1009.90 1010.22 1010.51 1010.77 1011.01 1011.21 1011.38 1011.53 1011.67 1011.79 1011.92 1012.06
1009.16 1009.37 1009.57 1009.76 1009.95 1010.14 1010.31 1010.48 1010.60 1010.66 1010.64 1010.49 1010.22 1009.82 1009.32 1008.74 1008.15 1007.58 1007.10 1006.73 1006.51 1006.44 1006.51 1006.70 1006.98 1007.32 1007.69 1008.06 1008.43 1008.78 1009.11 1009.43 1009.72 1010.00 1010.27 1010.52 1010.75 1010.97 1011.17 1011.36 1011.54 1011.71 1011.87 1012.02
1009.71 1010.00 1010.23 1010.40 1010.48 1010.49 1010.43 1010.30 1010.12 1009.90 1009.64 1009.34 1009.01 1008.65 1008.28 1007.92 1007.59 1007.30 1007.08 1006.94 1006.89 1006.92 1007.03 1007.21 1007.44 1007.71 1007.99 1008.28 1008.57 1008.85 1009.13 1009.39 1009.65 1009.89 1010.13 1010.36 1010.58 1010.80 1011.02 1011.23 1011.43 1011.62 1011.80 1011.95
1010.31 1010.66 1010.92 1011.05 1011.04 1010.88 1010.59 1010.19 1009.73 1009.24 1008.75 1008.30 1007.90 1007.58 1007.34 1007.18 1007.10 1007.08 1007.12 1007.20 1007.32 1007.47 1007.63 1007.81 1008.00 1008.20 1008.41 1008.62 1008.84 1009.06 1009.28 1009.50 1009.71 1009.91 1010.12 1010.31 1010.51 1010.71 1010.91 1011.11 1011.31 1011.49 1011.65 1011.78
1010.80 1011.19 1011.45 1011.55 1011.44 1011.14 1010.67 1010.05 1009.35 1008.64 1007.97 1007.40 1006.96 1006.68 1006.56 1006.59 1006.73 1006.96 1007.24 1007.54 1007.83 1008.08 1008.31 1008.50 1008.66 1008.81 1008.95 1009.10 1009.25 1009.41 1009.58 1009.75 1009.92 1010.09 1010.24 1010.39 1010.54 1010.69 1010.84 1011.00 1011.15 1011.29 1011.41 1011.49
1011.01 1011.39 1011.63 1011.68 1011.51 1011.10 1010.50 1009.73 1008.88 1008.03 1007.25 1006.62 1006.18 1005.96 1005.95 1006.15 1006.51 1006.96 1007.45 1007.94 1008.37 1008.74 1009.03 1009.24 1009.39 1009.50 1009.59 1009.69 1009.79 1009.91 1010.03 1010.17 1010.29 1010.40 1010.50 1010.59 1010.66 1010.73 1010.80 1010.88 1010.96 1011.03 1011.08 1011.10
1010.83 1011.14 1011.32 1011.31 1011.08 1010.62 1009.95 1009.11 1008.20 1007.29 1006.49 1005.86 1005.46 1005.33 1005.46 1005.82 1006.36 1007.00 1007.69 1008.34 1008.91 1009.38 1009.73 1009.96 1010.12 1010.21 1010.27 1010.33 1010.40 1010.49 1010.59 1010.68 1010.77 1010.83 1010.87 1010.88 1010.86 1010.84 1010.80 1010.78 1010.75 1010.74 1010.71 1010.67
1010.21 1010.41 1010.49 1010.42 1010.14 1009.64 1008.96 1008.12 1007.22 1006.35 1005.59 1005.03 1004.73 1004.71 1004.98 1005.51 1006.22 1007.03 1007.87 1008.67 1009.36 1009.92 1010.33 1010.60 1010.77 1010.86 1010.92 1010.96 1011.02 1011.09 1011.17 1011.25 1011.30 1011.32 1011.29 1011.23 1011.12 1010.99 1010.84 1010.70 1010.57 1010.45 1010.35 1010.26
1009.23 1009.27 1009.23 1009.07 1008.75 1008.25 1007.58 1006.80 1005.98 1005.19 1004.54 1004.10 1003.93 1004.05 1004.46 1005.14 1005.99 1006.95 1007.93 1008.84 1009.64 1010.28 1010.75 1011.07 1011.27 1011.38 1011.44 1011.50 1011.56 1011.63 1011.71 1011.77 1011.81 1011.80 1011.72 1011.58 1011.39 1011.16 1010.90 1010.65 1010.42 1010.21 1010.04 1009.90
1008.05 1007.91 1007.73 1007.48 1007.11 1006.61 1005.99 1005.28 1004.56 1003.90 1003.39 1003.09 1003.05 1003.31 1003.87 1004.67 1005.65 1006.72 1007.81 1008.82 1009.71 1010.42 1010.96 1011.33 1011.56 1011.71 1011.80 1011.87 1011.95 1012.04 1012.13 1012.20 1012.23 1012.20 1012.09 1011.90 1011.63 1011.32 1010.97 1010.62 1010.30 1010.02 1009.79 1009.62
1006.85 1006.54 1006.24 1005.89 1005.48 1004.98 1004.41 1003.79 1003.17 1002.64 1002.25 1002.09 1002.18 1002.56 1003.22 1004.13 1005.20 1006.36 1007.53 1008.62 1009.57 1010.35 1010.94 1011.36 1011.64 1011.83 1011.96 1012.07 1012.17 1012.29 1012.39 1012.48 1012.51 1012.47 1012.34 1012.12 1011.81 1011.43 1011.01 1010.59 1010.20 1009.86 1009.59 1009.40
1005.84 1005.41 1005.00 1004.58 1004.13 1003.63 1003.09 1002.54 1002.02 1001.58 1001.30 1001.24 1001.43 1001.90 1002.63 1003.59 1004.72 1005.93 1007.14 1008.28 1009.28 1010.11 1010.75 1011.22 1011.55 1011.78 1011.94 1012.08 1012.22 1012.36 1012.49 1012.59 1012.63 1012.59 1012.45 1012.21 1011.87 1011.46 1010.99 1010.52 1010.08 1009.70 1009.40 1009.19
1005.16 1004.67 1004.20 1003.73 1003.26 1002.76 1002.25 1001.74 1001.28 1000.91 1000.70 1000.69 1000.93 1001.44 1002.19 1003.18 1004.32 1005.54 1006.76 1007.92 1008.94 1009.80 1010.48 1010.99 1011.35 1011.61 1011.80 1011.97 1012.13 1012.28 1012.42 1012.53 1012.58 1012.55 1012.41 1012.17 1011.81 1011.38 1010.89 1010.39 1009.92 1009.51 1009.19 1008.96
1004.87 1004.37 1003.89 1003.42 1002.95 1002.46 1001.97 1001.48 1001.05 1000.71 1000.53 1000.54 1000.79 1001.28 1002.03 1002.98 1004.10 1005.29 1006.50 1007.64 1008.66 1009.53 1010.22 1010.74 1011.12 1011.40 1011.61 1011.78 1011.94 1012.09 1012.24 1012.34 1012.39 1012.36 1012.22 1011.98 1011.63 1011.19 1010.69 1010.18 1009.69 1009.26 1008.92 1008.68
Thickness
5848 5839 5836 5850 5862 5864 5864 5858 5853 5857 5875 5862 5848 5842 5846 5853 5852 5845 5840 5835 5831 5827 5829 5828 5824 5821 5815 5809 5804 5800 5795 5792 5788 5784 5780 5778 5776 5777 5777 5775 5774 5772 5770 5768
5832 5829 5851 5865 5867 5863 5858 5849 5851 5857 5870 5861 5849 5845 5853 5856 5853 5851 5845 5839 5836 5832 5829 5827 5824 5821 5816 5810 5806 5802 5797 5794 5790 5788 5785 5783 5781 5780 5780 5779 5776 5774 5772 5770
5824 5843 5860 5856 5853 5848 5850 5848 5848 5849 5857 5860 5848 5835 5841 5850 5857 5856 5852 5848 5844 5838 5831 5827 5824 5822 5818 5813 5809 5806 5800 5796 5792 5791 5788 5786 5783 5781 5779 5777 5776 5775 5774 5772
5831 5849 5849 5844 5844 5846 5838 5858 5857 5852 5840 5834 5841 5814 5830 5839 5840 5847 5849 5849 5846 5844 5839 5832 5827 5823 5821 5818 5814 5808 5803 5799 5796 5794 5790 5785 5780 5777 5779 5779 5778 5777 5776 5774
5825 5839 5837 5832 5843 5850 5846 5862 5855 5850 5840 5833 5839 5822 5824 5838 5829 5838 5846 5850 5850 5849 5844 5837 5833 5829 5826 5823 5818 5812 5807 5802 5800 5796 5792 5788 5785 5784 5784 5783 5780 5778 5777 5776
5830 5847 5845 5842 5852 5855 5856 5849 5845 5843 5835 5810 5826 5821 5816 5830 5835 5840 5847 5851 5852 5852 5849 5843 5839 5834 5829 5827 5822 5816 5809 5804 5801 5798 5795 5791 5788 5786 5783 5781 5779 5777 5777 5777
5809 5827 5842 5847 5835 5842 5841 5823 5802 5797 5799 5803 5835 5825 5820 5841 5852 5852 5851 5854 5856 5854 5850 5844 5839 5834 5830 5827 5823 5819 5811 5805 5803 5799 5796 5794 5791 5788 5784 5782 5780 5778 5777 5776
5789 5797 5825 5835 5830 5826 5829 5824 5800 5786 5792 5807 5828 5821 5832 5855 5860 5860 5860 5859 5857 5853 5850 5846 5842 5837 5833 5829 5825 5820 5813 5807 5805 5801 5798 5796 5793 5790 5788 5785 5784 5781 5780 5780
5797 5800 5831 5836 5840 5836 5822 5823 5836 5820 5815 5802 5811 5821 5836 5854 5850 5850 5852 5853 5851 5853 5850 5847 5844 5840 5836 5831 5827 5822 5816 5810 5806 5803 5800 5796 5794 5791 5789 5787 5785 5783 5782 5781
5809 5797 5818 5828 5831 5833 5835 5832 5824 5811 5791 5784 5799 5806 5814 5826 5834 5841 5842 5844 5848 5851 5850 5847 5844 5841 5838 5834 5830 5825 5819 5812 5808 5804 5801 5798 5795 5792 5789 5786 5784 5782 5781 5780
5808 5792 5802 5812 5805 5810 5817 5818 5819 5817 5812 5793 5784 5796 5834 5832 5837 5839 5842 5844 5847 5847 5847 5845 5843 5840 5838 5834 5829 5823 5818 5813 5808 5805 5801 5799 5795 5792 5788 5785 5783 5781 5779 5777
5800 5795 5789 5800 5820 5829 5824 5819 5816 5796 5797 5805 5795 5798 5839 5837 5841 5843 5841 5842 5842 5843 5844 5841 5838 5834 5830 5827 5825 5820 5816 5812 5808 5804 5801 5797 5794 5791 5787 5784 5782 5780 5777 5774
5791 5782 5767 5777 5794 5808 5809 5817 5818 5815 5806 5799 5791 5793 5832 5832 5835 5838 5835 5834 5834 5834 5834 5833 5831 5827 5822 5821 5819 5817 5813 5810 5807 5803 5799 5794 5791 5788 5785 5782 5781 5778 5775 5772
5788 5775 5769 5765 5779 5795 5794 5804 5812 5807 5794 5794 5797 5798 5810 5817 5819 5824 5826 5826 5826 5825 5823 5822 5820 5819 5817 5816 5814 5812 5809 5807 5804 5800 5795 5791 5788 5786 5784 5781 5779 5775 5773 5769
5778 5765 5773 5784 5798 5801 5799 5800 5804 5802 5804 5799 5802 5803 5808 5814 5817 5817 5818 5818 5816 5813 5812 5812 5811 5810 5810 5808 5807 5806 5804 5802 5800 5795 5791 5788 5786 5784 5781 5778 5775 5772 5769 5766
5768 5759 5764 5768 5789 5796 5793 5799 5802 5805 5807 5805 5804 5804 5818 5819 5815 5811 5809 5808 5804 5802 5802 5803 5803 5802 5801 5801 5800 5799 5797 5796 5794 5789 5786 5784 5782 5779 5776 5773 5770 5766 5763 5761
5756 5749 5747 5754 5775 5780 5773 5794 5798 5800 5808 5805 5794 5802 5812 5807 5804 5803 5803 5801 5798 5797 5796 5795 5795 5795 5795 5795 5794 5792 5791 5790 5787 5784 5781 5779 5776 5772 5770 5768 5764 5760 5757 5754
5746 5742 5744 5748 5753 5738 5774 5809 5807 5800 5802 5808 5805 5804 5804 5803 5802 5804 5804 5798 5793 5792 5791 5789 5789 5788 5789 5790 5789 5787 5784 5781 5778 5775 5773 5771 5769 5766 5764 5761 5757 5753 5750 5747
5749 5739 5735 5738 5737 5747 5771 5794 5798 5788 5785 5802 5800 5799 5799 5799 5794 5791 5795 5793 5789 5787 5786 5784 5784 5783 5782 5781 5781 5778 5775 5773 5769 5766 5764 5763 5761 5758 5755 5752 5749 5747 5743 5740
5742 5739 5730 5731 5725 5727 5758 5788 5802 5789 5767 5794 5795 5789 5788 5786 5771 5771 5784 5785 5782 5781 5780 5779 5778 5776 5773 5773 5773 5769 5765 5762 5759 5758 5757 5756 5754 5751 5747 5744 5741 5739 5736 5732
5720 5721 5720 5723 5725 5737 5767 5785 5788 5754 5756 5784 5788 5783 5781 5776 5775 5775 5776 5775 5773 5771 5771 5771 5768 5765 5764 5764 5763 5758 5756 5753 5753 5752 5751 5748 5745 5743 5740 5737 5734 5731 5728 5723
5716 5716 5715 5720 5718 5724 5763 5766 5758 5757 5773 5778 5779 5778 5776 5773 5772 5768 5766 5763 5762 5761 5761 5760 5757 5755 5756 5755 5752 5748 5746 5746 5746 5744 5741 5739 5737 5735 5732 5728 5725 5723 5719 5714
5719 5723 5725 5723 5722 5740 5753 5753 5759 5766 5765 5768 5770 5771 5769 5764 5761 5758 5756 5754 5752 5750 5749 5749 5747 5745 5745 5745 5743 5739 5738 5738 5736 5734 5730 5728 5726 5724 5721 5718 5714 5712 5711 5707
5715 5726 5722 5718 5724 5734 5740 5747 5752 5758 5758 5763 5764 5762 5760 5754 5751 5748 5746 5743 5741 5740 5739 5739 5737 5734 5733 5734 5733 5731 5730 5729 5727 5723 5720 5718 5716 5713 5711 5708 5704 5701 5700 5698
5702 5708 5710 5709 5716 5723 5729 5736 5743 5747 5752 5753 5753 5753 5750 5746 5742 5738 5735 5733 5732 5730 5730 5729 5726 5724 5723 5723 5722 5722 5721 5719 5716 5714 5711 5709 5705 5702 5698 5694 5689 5688 5685 5685
5696 5697 5697 5697 5709 5713 5717 5730 5737 5736 5738 5740 5740 5739 5738 5736 5733 5730 5726 5725 5723 5721 5720 5718 5717 5715 5714 5714 5713 5713 5712 5711 5708 5705 5703 5700 5697 5692 5688 5683 5678 5674 5674 5673